Flag for San Marino Weather past 2 weeks in San Marino, San Marino

64 °F

Passing clouds.

Feels Like: 64 °F
Forecast: 52 / 54 °F
Wind: No wind

Location: Rimini Airport

Current Time: Oct 10, 2015 at 12:28:54 AM

Latest Report: Oct 9, 2015 at 11:45 PM

Visibility: N/A

Pressure: 29.98 "Hg (27.73 "Hg at 666m altitude)

Humidity: 100%

Dew point: 64 °F

Location of San MarinoLocation

Historic Weather in San Marino — Graph


San Marino temperature yesterday

Maximum temperature yesterday: 68 °F (at 1:15 PM)
Minimum temperature yesterday: 55 °F (at 4:45 AM)
Average temperature yesterday: 62 °F

Past Weeks' High & Low Weather Summary

High75 °F (Sep 26, 3:45 PM)100% (Oct 2, 10:45 AM)30.30 "Hg (Oct 2, 10:45 AM)
Low55 °F (Oct 9, 4:45 AM)50% (Sep 27, 1:15 PM)29.74 "Hg (Oct 7, 4:45 AM)
Average66 °F82%30.07 "Hg
* Reported Sep 24 10:15 PM — Oct 9 10:45 PM, San Marino, Weather by CustomWeather, © 2015

Note: Actual official high and low records may vary slightly from our data, if they occured in-between our weather recording intervals... More about our weather records


San Marino weather history for previous 24 hours

Time TempWeatherWind HumidityBarometerVisibility
10:45 PM
Fri, Oct 9
64 °FPassing clouds.2 mph100%29.98 "HgN/A
10:15 PM64 °FPassing clouds.2 mph100%29.98 "HgN/A
9:45 PM66 °FPassing clouds.3 mph83%29.98 "HgN/A
9:15 PM66 °FPassing clouds.5 mph83%29.98 "HgN/A
8:45 PM66 °FPassing clouds.7 mph83%29.98 "HgN/A
8:15 PM66 °FPassing clouds.5 mph88%29.98 "HgN/A
7:45 PM66 °FPassing clouds.2 mph88%29.98 "HgN/A
7:15 PM66 °FPassing clouds.No wind88%29.98 "HgN/A
6:45 PM66 °FPassing clouds.No wind88%30.01 "HgN/A
6:15 PM66 °FPassing clouds.No wind88%30.01 "HgN/A
5:45 PM66 °FPassing clouds.2 mph88%30.01 "HgN/A
5:15 PM68 °FScattered clouds.2 mph83%30.01 "HgN/A
4:15 PM68 °FScattered clouds.6 mph88%30.01 "HgN/A
3:45 PM68 °FBroken clouds.6 mph88%30.01 "HgN/A
3:15 PM68 °FBroken clouds.6 mph88%30.01 "HgN/A
2:45 PM68 °FScattered clouds.5 mph83%30.01 "HgN/A
2:15 PM68 °FScattered clouds.5 mph83%30.01 "HgN/A
1:45 PM68 °FScattered clouds.5 mph83%30.04 "HgN/A
1:15 PM68 °FScattered clouds.3 mph83%30.04 "HgN/A
12:45 PM66 °FPartly sunny.6 mph88%30.04 "HgN/A
12:15 PM66 °FPartly sunny.3 mph88%30.04 "HgN/A
11:45 AM66 °FPartly sunny.5 mph83%30.04 "HgN/A
11:15 AM66 °FPartly sunny.1 mph83%30.04 "HgN/A
10:45 AM63 °FBroken clouds.No wind94%30.04 "HgN/A
10:15 AM63 °FBroken clouds.No wind94%30.04 "HgN/A
9:45 AM61 °FPartly sunny.No wind100%30.04 "HgN/A
9:15 AM61 °FScattered clouds.2 mph94%30.04 "HgN/A
8:45 AM59 °FScattered clouds.2 mph100%30.04 "HgN/A
8:15 AM55 °FPassing clouds.2 mph100%30.04 "HgN/A
7:45 AM55 °FPassing clouds.1 mph100%30.04 "HgN/A
7:15 AM55 °FClear.1 mph100%30.04 "Hg10 mi
6:45 AM55 °FClear.No wind100%30.04 "Hg10 mi
6:15 AM55 °FClear.No wind100%30.04 "Hg10 mi
5:45 AM55 °FClear.No wind100%30.04 "Hg10 mi
5:15 AM55 °FClear.2 mph100%30.04 "Hg10 mi
4:45 AM55 °FClear.2 mph100%30.04 "Hg10 mi
4:15 AM57 °FClear.2 mph100%30.04 "Hg10 mi
3:45 AM57 °FClear.2 mph100%30.04 "Hg10 mi
3:15 AM57 °FClear.2 mph100%30.04 "Hg10 mi
2:45 AM57 °FClear.2 mph100%30.04 "Hg10 mi
2:15 AM57 °FClear.1 mph100%30.04 "Hg10 mi
1:15 AM57 °FClear.1 mph100%30.04 "Hg10 mi
12:45 AM57 °FClear.1 mph100%30.04 "Hg10 mi
12:15 AM59 °FClear.1 mph100%30.04 "Hg10 mi
Weather by CustomWeather, © 2015

See weather overviewHow to use our weather pages